Flag for Brazil Weather past 2 weeks in Belém, Pará, Brazil

Now
88 °F

Partly sunny.


Feels Like: 94 °F
Forecast: 75 / 91 °F
Wind: 10 mph from East

Location: Belem Aeroporto

Current Time: Aug 30, 2015 at 2:59:48 PM

Latest Report: Aug 30, 2015 at 2:00 PM


Visibility: N/A

Pressure: 29.92 "Hg

Humidity: 59%

Dew point: 72 °F

Location of BelémLocation

Historic Weather in Belém — Graph

°F

Belém temperature yesterday

Maximum temperature yesterday: 88 °F (at 1:00 PM)
Minimum temperature yesterday: 75 °F (at 3:00 AM)
Average temperature yesterday: 81 °F

Past Weeks' High & Low Weather Summary

 TemperatureHumidityPressure
High91 °F (Aug 15, 2:00 PM)94% (Aug 16, 6:00 AM)29.98 "Hg (Aug 16, 6:00 AM)
Low73 °F (Aug 23, 4:00 AM)46% (Aug 15, 4:00 PM)29.77 "Hg (Aug 24, 4:00 PM)
Average81 °F77%29.88 "Hg
* Reported Aug 15 2:00 PM — Aug 30 2:00 PM, Belém, Weather by CustomWeather, © 2015

Note: Actual official high and low records may vary slightly from our data, if they occured in-between our weather recording intervals... More about our weather records

Advertising

Belém weather history for previous 24 hours

 ConditionsComfort  
Time TempWeatherWind HumidityBarometerVisibility
2:00 PM
Sun, Aug 30
88 °FPartly sunny.10 mph59%29.92 "HgN/A
1:00 PM88 °FPartly sunny.12 mph55%29.95 "HgN/A
12:00 PM88 °FScattered clouds.14 mph59%29.98 "HgN/A
11:00 AM86 °FPassing clouds.12 mph62%29.98 "HgN/A
10:00 AM84 °FSunny.16 mph66%29.98 "Hg10 mi
9:00 AM82 °FPassing clouds.17 mph70%29.98 "HgN/A
8:00 AM79 °FSunny.15 mph79%29.95 "Hg10 mi
7:00 AM75 °FSunny.9 mph89%29.95 "Hg10 mi
6:00 AM75 °FClear.9 mph89%29.92 "Hg10 mi
5:00 AM75 °FClear.8 mph83%29.92 "Hg10 mi
4:00 AM75 °FClear.10 mph83%29.89 "Hg10 mi
3:00 AM75 °FClear.10 mph83%29.89 "Hg10 mi
2:00 AM77 °FClear.13 mph79%29.92 "Hg10 mi
1:00 AM77 °FClear.12 mph79%29.92 "Hg10 mi
12:00 AM77 °FClear.12 mph79%29.95 "Hg10 mi
11:00 PM
Sat, Aug 29
79 °FClear.13 mph79%29.95 "Hg10 mi
10:00 PM79 °FClear.14 mph79%29.95 "Hg10 mi
9:00 PM81 °FClear.12 mph79%29.92 "Hg10 mi
8:00 PM81 °FPassing clouds.12 mph79%29.89 "HgN/A
7:00 PM82 °FPassing clouds.9 mph74%29.89 "HgN/A
6:00 PM86 °FPassing clouds.7 mph62%29.86 "HgN/A
5:00 PM86 °FScattered clouds.8 mph62%29.86 "HgN/A
4:00 PM88 °FPassing clouds.12 mph55%29.86 "HgN/A
3:00 PM88 °FScattered clouds.8 mph59%29.89 "HgN/A
2:00 PM88 °FBroken clouds.10 mph55%29.92 "HgN/A
Weather by CustomWeather, © 2015

See weather overviewHow to use our weather pages